Theta_e
299 299 299 299 299 299 299 298 301 300 304 306 301 305 306 306 307 307 308 311 313 316 317 316 321 322 321 313 314 323 320 323 327 324 319 318 319 324 325 328 329 326 324 325
298 298 299 299 298 298 297 297 300 300 303 306 304 304 306 305 306 307 307 308 307 307 310 313 315 315 314 315 314 317 318 318 325 322 318 316 320 319 319 317 318 325 327 324
298 297 298 299 298 298 297 295 300 300 302 301 303 304 303 305 304 306 306 306 306 307 307 308 309 309 312 314 315 315 316 315 318 321 316 314 318 317 316 316 320 320 321 319
297 298 297 298 297 299 297 294 299 300 302 301 303 302 303 303 303 303 302 307 306 302 305 302 308 309 309 311 314 314 314 317 314 313 312 311 313 316 317 316 314 318 314 315
298 297 298 297 297 298 299 296 298 300 302 301 301 301 302 302 302 300 301 302 302 300 301 302 303 304 307 309 306 314 312 315 313 314 313 312 313 312 312 314 313 312 312 312
298 297 298 296 296 297 298 294 296 298 299 300 300 297 298 298 299 298 299 300 296 296 299 301 302 305 305 305 305 308 310 312 312 314 311 312 312 309 311 311 311 311 312 310
298 297 297 297 296 297 296 297 297 297 295 296 299 297 298 297 298 292 297 299 299 299 301 302 302 304 305 304 306 306 309 310 311 313 312 313 308 308 309 309 308 308 307 306
297 297 296 294 296 297 297 296 296 295 296 296 296 295 295 297 296 297 298 299 298 298 300 303 302 304 308 305 306 307 306 310 312 309 312 308 306 305 308 309 308 307 307 305
297 296 297 295 295 297 297 296 295 293 291 295 296 294 295 299 298 299 297 298 297 299 302 303 304 305 306 308 307 306 307 306 310 310 312 310 306 306 303 303 305 305 305 305
296 296 296 296 295 297 296 295 295 293 291 293 296 293 294 297 298 297 297 298 299 299 300 301 304 306 303 306 308 308 309 309 308 310 309 308 305 307 306 304 302 306 306 306
296 296 296 295 297 297 294 295 295 294 290 292 296 296 295 296 297 295 295 294 298 298 298 299 301 301 301 302 301 305 308 309 308 309 309 309 306 308 307 304 304 304 304 305
296 296 296 295 297 296 295 295 295 295 293 291 295 296 296 295 296 296 295 295 297 297 297 296 296 300 301 301 300 300 306 304 304 305 307 303 303 305 305 304 305 304 304 303
295 295 295 297 297 296 296 295 295 295 291 290 291 292 294 295 295 296 296 293 294 294 295 294 296 298 298 299 298 298 299 301 301 302 305 303 301 303 303 302 303 304 304 303
295 295 296 296 297 295 296 295 295 294 291 288 291 295 295 296 295 295 295 294 293 291 291 290 290 295 296 297 297 297 297 297 298 300 300 302 304 302 302 302 302 303 304 303
296 296 296 296 293 295 295 294 295 294 291 293 293 294 294 295 296 294 294 292 292 291 290 288 291 293 292 293 294 295 294 295 294 295 299 300 299 300 301 303 303 303 302 302
295 295 296 295 296 294 295 294 295 295 295 289 291 291 293 294 295 293 293 292 291 290 291 290 291 291 293 292 293 293 291 293 293 294 295 297 297 297 300 302 302 302 301 301
294 295 296 295 295 295 293 293 293 294 294 295 292 292 292 293 293 291 291 290 291 291 291 290 292 292 294 291 294 293 292 292 293 292 293 293 294 295 296 299 299 300 300 299
295 296 295 294 294 294 295 295 295 295 294 295 292 293 292 292 291 292 289 291 289 290 291 289 292 292 293 296 294 293 293 293 293 293 293 292 293 294 294 296 296 299 299 298
295 294 294 293 292 291 295 295 295 294 294 287 291 292 287 289 287 286 287 285 287 290 291 292 292 293 295 295 294 293 293 293 293 293 293 292 294 294 295 296 295 299 298 295
294 294 291 290 293 294 294 292 291 290 289 287 289 288 288 289 285 283 285 283 289 291 293 292 294 295 294 294 294 293 293 292 293 294 294 293 294 294 296 296 296 299 296 294
293 290 292 293 293 291 284 286 283 284 289 289 291 289 288 286 288 288 285 286 289 294 295 295 297 297 297 298 297 296 294 292 293 293 293 298 298 298 298 297 296 294 293 291
292 292 292 293 292 287 288 282 288 290 292 290 290 290 290 291 289 292 291 293 293 294 295 297 296 298 298 298 298 297 297 296 293 294 296 295 298 296 293 292 292 290 289 288
292 289 290 287 288 282 284 283 288 285 290 289 291 290 291 291 293 293 294 294 295 295 295 298 298 297 297 296 295 295 295 293 294 294 293 292 291 291 292 291 289 289 289 289
287 284 284 284 281 287 288 291 292 291 291 292 291 292 291 290 292 292 295 294 295 295 299 294 296 296 295 295 294 294 295 295 293 293 293 291 289 289 288 289 289 289 289 290
290 288 284 286 287 287 288 289 290 292 293 294 295 295 295 294 294 296 295 296 297 298 297 292 295 294 293 292 293 292 291 291 294 294 294 292 290 290 289 289 290 290 289 289
290 290 288 286 286 282 280 284 288 289 290 295 295 296 296 294 295 296 294 298 300 297 297 294 293 293 293 292 292 292 291 292 292 291 290 289 289 290 290 290 291 290 288 287
292 286 284 285 286 286 285 286 289 291 294 288 297 292 296 297 297 297 300 296 296 296 294 292 292 292 292 292 291 289 290 291 290 291 291 291 291 291 290 289 289 289 288 289
Wind_Speed
22 22 21 19 16 14 13 3 3 4 11 6 2 4 3 1 4 6 3 5 5 4 4 4 4 6 9 2 4 5 4 4 12 13 4 4 2 3 17 8 10 3 1 3
24 23 23 20 17 11 5 2 2 6 7 4 5 2 3 3 2 3 3 4 2 6 5 8 7 7 8 14 8 4 5 3 3 2 3 2 2 3 3 2 3 9 6 3
28 25 24 23 19 14 10 1 2 3 3 2 3 2 4 3 2 2 4 2 3 4 11 8 6 13 12 11 14 22 11 8 7 7 2 4 5 4 5 3 5 7 4 3
33 29 26 25 24 20 14 3 3 1 3 3 5 5 3 2 1 1 2 2 0 5 5 8 4 8 10 11 7 7 12 16 11 9 5 4 2 5 8 7 4 4 2 9
35 30 27 26 25 22 17 3 2 1 1 3 7 7 2 5 3 3 4 4 5 2 4 6 16 17 10 6 10 6 8 6 9 9 10 7 5 7 9 7 4 5 7 14
31 29 28 26 25 21 5 6 3 1 0 1 2 2 3 4 5 4 5 5 3 5 12 9 13 11 10 11 6 3 6 5 7 5 12 10 8 20 14 10 10 13 11 15
26 26 25 25 26 27 9 4 4 2 2 2 2 3 5 5 5 5 3 3 3 3 8 10 10 14 17 16 14 6 3 6 0 1 8 7 2 5 17 19 13 14 6 6
25 24 24 24 24 29 19 9 5 3 2 3 3 3 4 5 6 9 9 3 5 3 7 4 5 4 3 10 15 13 10 3 3 2 5 3 2 3 7 9 10 12 12 6
24 22 23 26 24 29 25 20 11 3 4 5 3 4 3 2 3 4 4 4 5 1 2 3 5 4 4 4 4 11 12 9 5 2 4 6 4 2 5 5 2 4 6 4
23 20 20 24 23 27 26 12 13 5 3 3 4 2 3 3 2 1 3 3 1 3 1 2 2 2 4 3 4 1 4 5 10 6 2 3 4 4 5 6 4 3 4 4
21 19 18 22 24 25 20 12 21 5 2 3 6 5 4 2 1 1 3 3 2 1 2 2 2 2 2 4 4 5 3 3 2 3 3 2 9 5 3 1 3 2 1 1
17 14 17 19 24 23 17 6 18 12 3 4 4 8 13 9 7 3 1 2 2 2 1 1 2 2 2 4 3 4 2 4 3 4 3 2 6 3 3 3 3 1 1 3
14 10 17 18 20 26 13 16 18 7 2 4 2 6 13 16 21 16 2 2 2 1 2 2 2 3 1 2 2 3 5 4 2 5 3 3 3 7 2 3 4 5 1 3
9 15 15 17 21 19 19 15 17 8 3 1 4 2 5 4 10 18 19 4 3 2 1 1 2 2 1 2 2 2 3 4 2 3 5 4 2 3 5 8 3 4 3 3
13 14 17 18 17 19 15 14 11 8 4 1 3 8 3 3 7 11 13 6 3 1 1 1 2 2 1 2 2 3 4 5 3 4 3 2 4 3 4 4 4 2 4 2
12 14 16 16 17 23 10 2 8 4 3 3 3 4 4 4 3 7 5 4 2 2 3 3 2 3 2 2 3 5 6 5 6 5 5 5 6 5 5 2 3 6 6 2
14 17 23 21 16 15 4 1 2 15 7 1 3 4 3 3 2 2 1 2 2 3 2 3 3 3 4 2 9 20 7 8 7 6 3 5 6 5 6 7 8 6 10 9
22 24 20 19 17 8 4 8 15 15 5 1 0 3 3 5 2 1 2 2 1 2 3 1 3 1 3 6 14 16 13 14 15 18 13 12 9 4 9 7 4 3 2 1
25 22 17 6 6 3 4 12 11 7 3 2 1 0 3 3 1 1 2 2 1 0 3 3 4 3 6 11 11 10 12 9 12 7 7 8 8 10 9 9 8 6 6 4
16 4 5 3 3 6 3 3 2 3 2 2 1 1 2 2 2 3 2 1 2 2 4 2 3 5 13 14 15 15 9 11 11 4 6 5 6 8 8 13 6 7 6 6
4 3 2 3 3 3 3 2 3 2 2 1 2 3 1 1 1 3 2 2 1 2 2 1 3 4 4 9 12 10 7 9 11 8 5 4 6 6 3 6 8 10 9 5
2 10 6 2 2 2 3 1 2 0 2 1 2 3 3 2 2 1 1 2 0 4 2 2 3 4 14 16 15 9 10 10 9 7 7 3 5 5 9 7 9 7 9 9
0 3 3 3 2 5 3 2 3 2 2 3 2 2 2 1 0 2 1 3 4 3 2 2 3 13 14 17 14 8 5 5 9 11 9 7 8 8 7 8 9 11 7 6
2 3 3 3 2 4 4 3 3 3 2 2 2 2 2 1 1 2 2 3 2 3 1 2 4 12 14 14 12 10 11 12 11 9 6 8 6 8 10 8 9 9 4 5
0 3 3 5 3 2 3 2 2 3 2 2 2 2 3 2 3 2 2 2 4 2 2 2 5 10 9 11 11 11 9 5 7 5 5 5 7 4 5 8 7 5 4 2
1 3 1 2 2 4 2 2 3 1 1 1 2 2 2 4 2 3 4 3 2 1 2 3 5 8 10 10 8 7 5 5 5 5 5 4 4 3 4 6 5 4 1 1
2 3 1 3 1 4 3 3 3 2 1 2 1 1 4 2 2 3 1 2 2 1 1 2 4 7 9 8 8 7 5 4 5 4 5 5 8 7 5 2 1 2 4 2
Wind_Direction
275 271 269 267 273 271 262 226 190 266 177 193 212 234 202 197 271 329 311 292 252 245 269 263 272 242 203 110 52 327 315 219 224 210 115 65 88 290 213 206 200 213 186 222
271 269 262 259 260 249 159 236 257 226 202 228 221 195 221 215 198 219 263 260 55 18 335 307 217 256 260 259 278 262 341 226 189 186 346 4 215 164 19 347 88 193 191 162
263 260 258 249 242 224 192 238 242 214 189 155 202 194 239 260 4 303 262 282 292 287 290 267 284 306 306 292 220 208 180 231 267 262 179 137 186 180 170 175 279 150 165 139
255 249 247 243 239 223 186 200 234 222 181 229 219 222 214 202 255 70 262 251 93 51 340 317 337 299 325 298 246 213 190 241 230 219 162 119 127 154 179 201 164 217 271 219
244 241 239 241 235 227 215 178 200 178 253 278 188 211 204 184 169 161 241 229 312 242 210 222 298 306 306 282 326 290 178 216 202 197 167 171 195 225 196 199 212 243 232 265
235 233 230 232 229 210 197 193 125 120 52 150 107 191 203 224 158 261 208 195 193 258 270 250 249 261 260 265 283 276 288 197 170 231 174 188 220 212 194 210 203 207 203 233
232 229 229 226 224 204 174 190 122 153 219 150 195 224 223 231 224 222 244 235 249 272 333 301 267 250 251 249 242 225 286 309 245 173 151 214 298 187 198 205 208 207 207 203
222 227 224 214 225 204 198 176 128 152 178 175 209 236 238 270 264 262 261 241 227 1 285 254 258 242 253 239 237 222 200 245 260 186 218 343 130 211 161 169 225 218 227 230
219 218 220 214 218 204 191 178 170 136 133 225 154 173 185 277 257 182 214 253 257 89 287 246 222 235 240 247 266 203 197 209 239 212 187 195 234 204 166 104 303 229 201 175
212 216 222 209 210 199 177 167 171 121 128 226 159 166 165 292 337 318 285 289 304 211 326 280 299 253 341 280 297 226 193 207 221 244 272 300 1 337 280 120 201 133 162 152
207 212 212 206 205 198 165 163 195 140 141 262 194 173 158 199 184 164 282 32 303 53 306 300 338 329 348 297 321 333 320 243 192 183 198 230 1 351 27 323 340 88 61 29
199 206 202 208 196 192 160 126 180 189 125 229 224 234 236 216 202 161 279 215 271 212 159 345 323 309 333 338 313 343 12 9 314 359 38 323 330 15 0 338 299 329 154 190
187 203 190 191 196 181 155 152 164 162 69 315 29 247 261 240 234 219 186 284 250 38 161 191 257 279 53 313 311 306 355 360 9 343 358 154 273 315 327 199 241 280 223 83
201 185 189 179 170 148 160 148 158 141 130 109 280 283 260 235 219 218 208 195 79 90 77 157 181 228 179 254 280 219 227 344 316 286 277 317 272 281 291 315 322 276 277 128
148 164 168 174 167 136 141 148 162 194 126 228 279 304 321 260 198 192 194 154 131 125 8 75 243 261 40 281 308 247 196 206 163 225 245 210 268 320 296 328 353 223 192 254
131 144 147 161 161 137 112 90 212 156 150 69 341 309 309 358 155 164 180 156 133 145 162 218 245 254 166 242 241 235 217 215 207 232 239 230 264 276 257 268 316 343 303 192
124 129 120 114 114 102 69 128 203 181 116 61 317 329 307 337 65 56 113 122 173 153 214 228 213 201 180 225 256 258 225 230 238 222 260 279 223 243 268 228 251 242 274 297
121 114 108 108 97 90 50 44 128 132 106 158 48 276 339 11 338 314 354 145 49 232 222 6 210 223 200 242 244 258 251 246 256 258 248 246 261 271 264 253 234 226 164 197
117 118 113 101 45 52 56 108 112 106 88 143 98 243 266 0 333 293 3 68 344 218 224 231 149 199 224 238 261 258 247 213 239 253 238 229 234 244 253 256 188 196 160 80
116 58 42 45 18 111 112 26 29 18 354 46 203 132 280 69 16 320 7 54 236 294 241 126 221 254 264 273 269 259 239 222 232 193 254 254 250 231 238 233 213 184 132 132
21 55 54 74 71 35 33 50 71 322 357 206 238 187 228 294 108 239 181 237 263 284 282 244 260 263 263 260 258 269 265 227 220 215 213 269 266 265 155 128 117 118 120 124
104 117 115 79 32 30 73 324 317 241 259 230 198 238 201 256 147 79 243 249 179 258 337 264 289 269 321 315 316 287 250 226 207 166 147 70 51 95 99 82 94 89 97 133
194 58 84 76 310 19 121 245 292 312 224 227 218 272 214 19 116 233 210 246 233 324 255 294 272 307 330 342 342 348 150 151 119 95 80 74 76 64 86 95 92 109 125 138
76 97 334 150 282 242 197 202 196 227 195 242 206 253 179 192 296 229 272 257 303 279 23 271 309 327 333 346 2 39 76 94 98 93 97 94 83 79 85 110 132 125 147 158
236 94 240 216 231 252 244 255 290 243 231 195 211 211 191 206 253 231 254 258 250 208 175 264 331 325 336 356 15 18 23 52 117 163 98 99 95 97 122 139 137 141 145 168
192 213 23 273 45 295 329 249 255 228 176 235 216 262 224 221 223 209 226 247 355 42 44 336 333 350 359 357 4 11 21 62 35 49 81 86 106 165 166 151 164 158 94 53
247 265 158 174 207 219 230 188 231 192 270 249 221 241 211 251 212 218 20 101 312 342 34 19 349 349 343 344 345 354 360 46 127 136 138 158 187 180 157 142 206 151 165 123